Wind_Speed
21 20 19 17 16 17 16 16 17 18 19 19 20 22 24 27 26 25 24 23 24 27 31 31 31 30 28 30 32 34 36 39 40 40 42 43 44 46 47 48 48 46 44 43 43 43 41 41 41 41 42 42 43 44 45 47 49 51 52 52 52 52 53 53 54 55 55 56 57 58 57 57 56 56 57 57 58 59 60 61 61 61 60 60 60 59
23 21 18 16 17 18 17 17 18 18 19 20 21 23 25 27 27 26 25 25 24 28 32 31 32 33 30 30 33 36 40 42 43 43 44 46 47 48 49 49 47 45 44 43 43 43 42 42 42 42 43 44 44 44 45 47 50 52 52 53 53 53 53 53 54 55 55 56 57 58 58 58 58 57 58 59 60 60 61 61 61 61 60 59 59 59
24 21 17 17 19 18 18 19 19 18 19 20 21 23 25 26 28 28 25 24 24 27 32 33 34 35 32 32 35 39 43 43 44 46 47 49 49 49 48 47 45 44 44 44 43 43 44 43 43 44 45 45 44 44 46 48 51 52 53 54 54 53 53 53 54 55 55 55 55 56 57 57 58 58 58 59 60 60 60 59 59 60 61 60 58 58
24 20 19 20 19 19 20 21 19 18 19 20 21 23 25 25 26 28 27 26 26 29 33 35 39 40 36 36 37 39 44 46 46 48 49 49 48 47 45 44 44 45 44 43 43 44 44 44 44 44 45 45 44 45 47 49 51 52 54 55 54 53 53 54 54 55 55 55 55 55 55 55 56 57 57 58 58 58 58 57 57 59 61 62 61 59
25 21 21 20 19 21 22 21 20 20 19 19 20 22 24 23 23 27 29 28 29 29 30 33 40 40 31 28 29 29 34 39 40 42 44 44 44 43 43 43 44 43 42 42 44 45 44 44 44 45 45 44 44 45 48 50 51 53 55 55 53 53 54 55 55 55 55 55 55 55 55 56 57 58 59 60 60 59 58 58 58 58 60 62 63 60
25 21 20 20 21 23 23 21 20 19 21 21 19 19 21 22 25 27 27 28 28 25 23 25 23 18 15 19 26 28 30 33 35 38 39 39 40 40 40 42 42 42 41 42 44 44 44 45 44 45 45 44 44 46 48 50 51 53 56 55 52 53 54 55 55 55 55 56 56 57 58 58 60 61 62 62 63 61 60 60 59 59 60 61 62 60
25 21 20 22 24 25 24 22 18 17 20 21 19 17 19 23 26 28 27 26 24 20 23 25 19 16 23 33 37 37 34 33 33 36 37 37 37 38 39 40 41 40 40 42 43 44 44 45 45 45 45 43 44 46 48 50 51 53 56 54 52 54 55 55 55 55 55 56 56 57 58 59 60 62 62 61 61 60 59 60 60 60 61 62 63 59
25 23 22 23 25 26 25 21 16 16 19 21 21 19 21 24 26 28 29 27 28 28 31 34 28 25 33 41 38 32 29 31 33 34 33 33 33 34 37 39 38 38 39 41 42 42 43 44 45 45 44 44 45 47 48 49 51 55 55 53 52 53 55 55 55 55 55 55 56 56 57 58 59 60 61 60 59 58 58 59 60 61 62 62 63 59
27 25 24 24 26 26 22 19 16 17 19 21 21 20 23 25 26 30 29 29 31 26 29 36 28 18 26 36 34 29 30 33 33 31 28 28 29 32 36 36 36 37 39 40 41 42 43 43 45 45 44 45 46 47 48 49 52 56 54 52 52 53 54 55 54 54 54 55 56 56 57 58 59 59 59 59 58 57 58 59 60 61 63 63 63 59
26 24 23 24 27 24 20 19 18 18 19 20 20 21 23 25 28 29 26 30 26 15 25 37 25 12 18 31 31 28 30 32 29 27 27 29 30 33 35 34 35 37 38 40 40 41 43 44 45 45 44 45 46 47 48 50 54 56 53 52 53 53 54 54 54 54 54 55 56 56 57 58 59 59 59 59 58 58 59 60 60 61 63 65 63 59
25 23 23 24 25 23 21 20 19 18 17 18 20 21 23 25 27 26 23 24 14 9 22 28 22 16 13 25 32 29 32 34 32 31 31 31 32 34 34 33 34 36 38 39 40 41 42 44 44 44 45 45 45 47 48 51 56 55 52 52 53 53 54 54 54 54 54 54 55 56 57 58 59 59 60 59 58 58 60 61 62 63 65 66 64 59
23 22 24 26 25 22 21 20 18 17 16 17 18 21 22 19 18 16 14 12 4 7 17 16 15 17 15 24 37 36 39 39 36 34 31 31 33 33 32 31 34 36 37 39 39 41 42 43 44 44 44 44 45 47 48 54 57 53 51 52 53 53 53 54 54 54 54 54 55 56 56 57 58 59 59 60 59 59 61 62 63 65 66 67 64 58
27 27 27 26 23 18 18 19 18 16 15 16 16 17 15 9 8 6 5 5 5 10 16 13 10 15 28 41 45 38 38 34 33 33 31 31 34 33 31 31 34 36 37 39 39 41 42 43 44 44 43 45 45 46 50 57 56 51 51 52 52 53 53 54 54 54 54 54 54 55 56 57 58 59 59 59 60 59 61 63 64 66 67 68 65 58
26 26 25 22 18 14 15 16 15 14 14 14 15 15 10 2 4 4 4 4 7 12 17 16 12 16 31 41 37 33 33 31 33 34 32 33 33 32 32 32 35 36 37 38 39 40 42 42 43 44 44 45 44 47 55 58 53 49 51 52 53 53 53 53 54 54 54 54 55 55 56 57 57 58 59 59 60 60 60 62 64 67 69 69 65 58
16 16 18 16 13 11 12 13 13 15 17 17 18 16 15 12 6 5 4 4 8 15 19 14 9 13 22 29 33 37 40 38 38 37 35 35 33 32 33 34 35 37 36 37 39 40 42 42 44 44 44 44 45 52 58 54 50 50 51 52 53 53 53 53 53 54 55 55 55 56 56 56 57 58 59 59 60 60 61 62 63 67 69 69 65 58
13 16 18 15 14 13 14 15 15 16 17 17 17 18 19 18 15 15 15 15 14 15 15 14 17 28 36 41 44 43 43 41 37 38 38 35 34 32 33 34 35 35 36 37 38 41 42 43 44 43 43 44 49 56 56 50 48 50 51 52 53 53 53 53 54 54 55 56 56 56 56 57 57 58 60 60 60 60 60 62 63 67 69 67 64 57
13 18 18 14 16 18 18 19 18 17 16 15 16 19 20 18 18 20 18 16 11 8 13 16 24 38 40 40 44 39 38 39 35 37 37 33 32 31 31 33 33 34 35 36 39 41 42 43 43 42 43 48 54 56 51 47 48 50 51 53 53 53 53 53 54 54 55 57 57 57 57 57 57 58 59 60 61 61 61 61 64 67 69 67 62 55
20 27 28 23 22 23 22 20 20 21 20 20 20 19 18 15 17 17 9 6 3 3 13 16 23 36 28 26 42 41 37 38 34 34 35 30 29 29 30 32 32 34 35 37 40 41 42 43 41 42 46 52 55 53 48 47 49 50 51 53 53 53 53 53 54 55 56 58 58 58 58 57 57 58 59 60 61 62 62 62 64 67 70 67 60 53
23 28 32 26 21 21 21 20 22 24 24 25 26 22 18 15 14 14 9 4 2 2 9 11 20 36 30 27 44 46 38 34 31 31 31 28 28 29 30 31 31 33 35 37 41 41 41 42 41 44 50 54 53 49 47 48 49 50 51 51 52 53 53 54 54 55 56 58 58 59 58 57 57 58 59 60 60 61 61 63 65 67 70 68 59 52
24 22 23 21 18 17 19 23 26 26 24 26 28 27 27 24 21 20 15 9 4 3 9 9 12 28 34 34 42 40 34 33 32 34 31 27 30 31 30 31 31 32 35 38 40 41 41 41 43 48 52 53 51 48 47 48 49 50 50 51 52 52 53 53 54 56 57 57 58 59 58 58 58 58 59 60 61 61 62 64 66 67 70 67 58 52
24 24 25 24 21 20 24 28 29 26 22 25 31 31 31 30 27 24 23 22 15 6 6 4 9 29 39 41 44 39 38 42 41 37 33 32 34 32 31 31 31 32 36 38 39 40 40 42 46 50 51 51 51 47 47 49 49 50 50 51 52 52 53 54 54 56 57 57 58 58 59 59 58 58 59 60 61 62 62 64 66 68 70 65 55 51
24 27 32 32 30 31 35 36 31 27 27 29 33 33 33 33 29 18 15 22 25 19 13 5 11 36 48 46 48 46 45 49 44 38 38 38 36 34 32 31 31 33 35 37 39 40 42 46 48 49 50 51 49 47 47 49 49 50 50 51 52 52 53 54 55 56 57 57 57 58 59 59 58 58 59 60 62 62 63 65 67 69 69 62 52 47
26 28 33 37 39 40 40 38 33 32 35 35 36 37 35 33 32 25 15 16 21 26 27 15 14 41 58 52 49 49 49 49 44 41 41 39 36 35 33 32 32 33 35 36 39 42 44 48 48 48 51 50 47 46 47 48 49 50 50 51 51 52 52 54 55 56 56 57 57 58 58 58 58 58 59 60 62 63 64 66 68 70 68 60 50 45
27 29 33 37 40 40 40 40 39 38 38 39 41 41 38 36 38 38 32 24 20 22 23 12 12 40 59 52 46 48 48 46 44 43 43 40 38 36 33 33 33 33 36 39 42 44 46 46 47 49 50 48 45 46 47 48 49 49 50 50 50 52 52 54 55 55 56 57 57 58 58 58 58 59 60 61 62 63 63 65 68 71 69 59 49 45
26 28 30 25 21 23 25 24 25 30 32 34 36 35 35 38 39 40 38 31 26 28 24 11 15 43 57 50 48 51 50 50 49 48 48 44 40 38 34 34 34 35 40 43 44 45 45 45 48 49 48 45 44 46 47 48 49 49 49 49 50 51 53 54 55 55 56 57 57 57 58 58 58 59 61 62 63 63 65 66 68 70 69 60 49 44
31 33 32 23 11 11 16 15 17 23 24 27 33 34 35 37 37 38 37 31 27 30 30 25 32 55 63 55 56 59 56 57 56 52 51 47 41 40 38 36 38 40 43 45 44 44 45 47 49 47 44 43 44 46 47 47 48 48 48 48 49 51 52 54 55 55 56 56 57 57 58 58 59 60 61 62 63 63 64 66 67 69 67 59 50 45
36 39 41 38 32 31 37 39 36 35 34 36 41 42 42 40 36 36 37 38 36 30 35 48 54 61 67 63 60 62 60 58 58 54 51 49 45 42 41 39 41 43 45 44 44 44 46 48 47 43 42 43 44 45 46 47 47 47 46 47 49 51 53 54 55 55 55 56 56 57 57 58 58 60 61 62 63 64 65 67 70 73 69 58 50 46
39 43 46 46 46 48 51 50 45 44 46 48 49 51 50 44 37 38 43 50 45 26 32 61 64 57 67 67 59 60 60 56 55 54 51 48 45 43 41 42 44 46 46 44 44 46 47 47 44 41 41 43 44 45 45 45 45 45 45 47 48 50 52 54 55 55 56 56 56 56 57 58 58 59 61 62 63 63 65 67 70 73 70 57 48 45
40 45 48 46 47 51 52 49 46 46 48 51 54 57 54 47 44 47 51 57 50 37 45 68 66 61 70 69 59 58 58 57 56 55 52 49 46 45 45 46 48 47 46 45 46 47 47 44 42 41 42 42 43 44 44 43 43 43 44 46 48 50 52 54 55 55 56 56 56 56 57 58 59 60 61 62 63 64 66 68 70 73 70 58 47 42
41 46 48 45 48 52 52 49 47 47 49 52 60 64 58 52 53 55 57 59 55 53 63 69 67 71 73 66 63 61 59 60 59 56 55 53 51 50 50 50 49 48 47 46 47 46 44 41 41 41 41 42 43 43 43 42 41 42 44 46 48 50 52 54 55 56 56 57 57 57 57 58 58 59 61 62 63 64 65 68 72 73 69 57 47 40
41 46 46 43 43 48 52 49 45 46 47 51 63 69 60 53 55 57 59 62 59 60 66 65 67 73 64 52 56 59 56 58 57 54 55 55 52 52 50 49 49 47 46 45 44 43 41 40 40 40 40 41 42 42 41 40 40 41 44 46 48 50 52 54 55 56 57 57 57 57 58 58 58 59 61 62 63 64 65 68 72 73 67 56 46 40
41 44 46 41 35 42 52 45 39 42 41 46 66 74 62 55 57 58 58 60 59 60 62 58 62 65 56 48 50 52 51 53 51 50 51 49 48 48 46 45 44 43 42 41 40 40 39 39 39 39 40 40 40 39 38 38 39 41 44 46 48 51 52 54 55 56 57 58 57 57 57 58 59 59 60 62 63 63 65 67 71 72 66 56 47 41
41 42 46 40 32 40 47 40 38 34 24 35 62 67 53 47 48 47 49 52 53 55 56 54 56 60 55 49 49 49 48 48 46 45 45 44 44 43 41 40 38 38 39 38 38 37 37 38 38 38 39 38 37 37 36 37 39 41 44 46 48 51 52 54 56 57 58 58 57 57 57 57 58 59 61 62 63 63 65 67 70 69 63 56 49 42
46 44 44 40 33 34 39 37 30 17 13 38 63 58 47 45 42 39 44 53 54 50 49 51 57 59 53 49 48 46 45 44 42 44 45 44 42 40 40 39 38 38 38 37 36 35 35 37 37 37 37 36 35 35 34 36 38 41 43 46 48 50 52 54 56 57 58 58 56 56 56 57 58 59 61 62 63 63 65 68 70 67 60 54 49 43
52 47 43 42 36 32 35 29 12 9 30 56 62 52 50 51 44 41 49 58 59 52 49 51 54 53 49 44 41 39 41 41 42 46 48 45 43 42 42 40 39 38 38 35 34 34 35 37 36 35 35 34 33 33 33 35 38 40 43 46 48 50 53 55 56 58 58 57 56 55 56 56 58 59 61 62 63 63 65 68 70 66 58 52 48 43
55 50 45 45 38 29 24 19 14 26 52 65 58 52 55 55 49 46 51 57 56 51 50 51 51 50 46 40 36 36 38 40 43 47 47 43 43 43 42 40 39 37 36 34 33 34 35 36 35 33 33 31 31 31 32 35 38 40 43 46 48 50 53 55 56 58 58 57 56 55 56 57 58 59 61 63 63 63 65 68 69 65 57 51 46 41
57 52 48 44 39 34 29 29 33 39 50 62 65 58 55 53 48 43 44 50 50 47 47 49 47 44 40 35 35 35 35 38 43 44 41 40 42 43 41 39 38 36 35 33 32 34 35 34 33 31 30 29 29 30 32 35 38 40 43 45 48 50 52 54 56 57 58 57 56 56 56 57 58 59 61 63 63 63 64 68 69 64 58 53 47 40
57 55 52 43 39 40 35 28 23 17 27 53 64 54 46 42 35 27 30 43 49 46 43 40 33 28 24 23 27 28 30 36 40 36 33 36 39 39 37 37 36 34 32 31 32 33 33 32 31 29 28 28 28 29 32 35 38 40 43 45 48 50 52 54 56 57 58 57 56 56 57 57 58 59 61 62 64 63 63 67 69 63 57 54 48 41
54 53 52 45 39 39 33 21 12 13 31 55 60 51 45 41 34 24 22 36 46 39 32 30 25 23 24 23 23 23 26 33 33 26 26 31 33 33 33 33 32 31 31 31 31 32 31 29 28 27 26 26 27 29 32 35 38 40 43 45 48 50 52 54 55 57 58 58 57 56 57 58 58 59 60 62 64 63 64 67 68 62 56 52 47 41
45 48 48 47 46 44 38 26 20 28 46 57 53 46 42 37 31 16 11 29 41 32 28 32 31 31 31 27 24 24 25 27 25 18 19 25 27 28 30 31 31 31 31 31 30 29 28 27 26 25 25 25 27 30 32 35 38 40 43 46 48 50 52 54 55 57 58 58 58 56 57 58 58 59 60 62 63 62 63 66 66 60 54 50 45 40
37 43 45 50 52 49 41 31 27 38 55 58 52 49 44 34 24 16 18 33 37 30 32 37 35 34 35 31 29 27 25 24 21 18 21 24 25 27 29 29 30 30 30 29 28 27 26 24 24 24 24 25 27 30 32 35 38 40 43 46 48 50 52 53 55 56 57 58 58 57 56 57 58 59 59 61 63 61 61 63 62 57 52 49 44 38
34 35 37 45 49 45 41 32 25 37 56 56 49 50 47 34 26 26 33 37 34 34 38 38 36 38 37 32 30 28 25 24 23 23 24 25 26 27 29 29 29 28 27 26 25 25 24 23 23 22 23 25 27 30 32 35 37 40 43 46 48 50 52 53 55 56 57 58 59 57 56 56 58 59 58 60 62 61 60 61 60 54 50 47 42 37
40 31 31 41 43 36 32 24 16 27 44 44 37 40 42 37 34 38 40 38 39 41 41 39 40 39 36 33 31 28 27 26 25 25 25 26 28 29 29 28 26 25 25 24 23 23 22 21 22 22 23 25 27 30 32 35 38 40 43 46 48 50 52 53 55 56 57 58 59 58 57 55 56 58 57 58 60 60 59 60 59 53 48 45 41 35
46 41 37 43 42 32 29 26 27 36 43 42 39 41 43 44 45 44 43 44 45 45 44 44 43 40 37 34 31 28 29 27 25 26 26 27 28 28 27 25 24 23 23 23 22 21 20 20 21 21 22 25 27 30 33 35 38 41 43 46 48 50 52 54 55 56 57 58 59 59 57 55 55 56 56 57 58 59 59 59 57 51 46 43 39 33
50 52 48 49 49 41 38 42 48 50 49 49 53 53 50 49 48 46 48 49 48 47 48 46 43 41 38 34 31 31 30 27 25 25 25 26 27 25 23 23 22 22 22 21 20 20 19 20 20 21 23 25 27 30 33 36 39 41 44 46 48 50 53 54 55 56 57 58 60 60 58 54 53 54 55 55 56 57 58 59 57 51 45 42 37 31
54 54 50 49 51 49 51 56 56 53 53 54 53 50 48 49 48 48 49 50 49 49 49 46 44 43 39 35 33 32 28 25 25 24 24 25 24 22 22 21 21 21 21 20 19 19 19 19 20 21 23 25 27 30 33 36 40 42 45 47 48 51 53 55 56 57 58 59 60 60 58 54 51 52 53 53 54 55 55 57 57 52 46 42 36 29
54 52 50 50 49 47 50 59 59 54 53 52 50 49 50 50 48 49 50 49 49 48 47 46 44 41 38 36 33 30 28 26 25 24 24 23 21 21 21 21 21 21 19 18 18 18 18 19 20 21 23 25 27 30 33 37 40 43 45 47 49 50 53 55 56 57 58 60 61 60 57 53 50 50 51 52 52 53 53 54 54 51 47 43 37 30
54 50 51 54 54 53 56 62 60 55 54 55 54 53 51 48 48 49 49 47 45 45 45 45 43 40 37 35 32 29 27 26 25 24 22 21 20 20 20 20 20 19 18 18 18 18 19 19 19 21 23 25 28 31 34 37 41 43 45 48 49 51 53 55 56 58 59 60 61 59 56 51 47 48 49 49 49 51 54 56 55 52 49 46 41 35
52 51 54 54 52 56 62 63 60 59 57 55 53 50 46 43 43 43 42 41 41 41 42 43 41 39 35 33 31 29 27 25 25 23 20 20 20 20 20 20 19 18 19 18 18 18 19 19 19 21 23 25 28 31 34 38 41 43 46 48 50 52 54 55 56 58 60 61 60 57 53 48 45 46 47 48 46 45 48 55 58 56 51 47 43 39
55 58 61 56 52 59 64 60 56 57 53 47 45 43 40 39 39 38 38 40 40 40 40 40 39 37 35 35 32 29 26 25 23 22 21 20 20 20 19 19 18 19 19 18 17 18 18 18 19 21 23 26 28 31 35 38 41 44 46 49 51 53 54 55 57 58 60 60 57 54 50 45 43 44 45 46 45 43 41 45 52 56 53 48 43 39
63 63 64 62 61 64 63 55 53 56 52 46 45 44 42 42 42 41 42 42 41 40 39 38 37 36 36 35 31 27 26 24 22 22 21 20 20 20 19 19 19 19 18 17 17 18 17 18 20 21 23 26 29 31 35 38 41 44 46 49 52 54 55 56 58 59 59 58 54 50 47 43 42 43 43 43 45 44 41 40 43 48 50 49 45 40
Wind_Direction
313 315 317 312 313 317 314 313 311 306 304 303 300 300 300 297 303 313 310 299 293 287 288 290 289 288 285 281 280 279 278 276 275 277 280 282 283 283 285 286 286 286 287 288 289 290 292 292 292 292 292 292 292 292 294 296 298 300 304 310 315 316 316 316 315 314 314 315 315 315 315 316 318 321 321 321 320 318 316 314 312 310 307 303 301 298
311 314 314 307 308 311 309 309 308 305 303 301 300 301 301 299 304 311 306 298 294 289 291 294 288 285 284 283 280 275 273 273 276 279 281 281 282 282 283 282 282 283 283 284 286 287 288 288 289 289 289 289 290 292 293 295 298 302 307 314 317 317 317 315 314 314 315 316 316 316 317 318 320 322 322 321 319 317 315 313 311 308 305 302 301 301
309 311 309 304 304 305 307 308 305 302 300 301 302 299 299 305 307 307 305 301 296 292 294 295 288 283 284 281 276 274 274 276 278 280 281 281 281 281 281 280 280 280 280 282 283 284 285 286 286 287 288 288 290 292 294 297 300 304 311 316 317 316 315 314 313 314 315 315 316 317 318 320 320 321 321 319 317 315 314 312 309 307 305 303 303 304
307 310 306 302 302 303 306 308 303 299 298 300 301 297 300 309 308 304 304 302 298 295 296 297 289 282 281 278 274 272 273 274 276 277 277 278 278 278 278 278 277 277 279 281 281 281 282 284 285 286 287 288 289 291 294 298 301 306 313 317 316 315 313 313 314 314 315 315 316 317 319 320 319 319 318 317 315 313 312 310 308 307 307 307 307 307
304 306 303 300 301 303 307 307 301 299 298 298 297 297 302 309 305 300 302 300 297 295 296 298 291 284 281 280 278 272 267 269 272 273 274 274 275 275 275 275 276 276 278 279 279 279 281 283 285 285 286 287 288 291 295 300 304 309 315 316 314 314 313 313 313 313 314 315 316 318 319 319 318 318 318 317 316 315 313 311 310 309 309 308 308 309
302 304 301 299 300 302 305 304 301 299 297 296 299 302 305 307 304 302 301 300 299 296 298 301 297 292 285 281 286 284 275 275 275 273 273 274 274 274 275 275 275 276 278 278 278 279 281 282 283 283 284 286 288 293 298 302 306 310 314 314 313 312 312 312 313 314 315 316 318 319 320 320 319 319 320 319 317 316 315 313 312 310 310 309 310 310
300 302 299 298 299 301 302 303 303 297 292 294 300 308 308 306 305 302 300 298 296 292 295 293 284 282 282 284 291 292 287 284 280 277 276 275 276 276 275 274 274 276 277 277 278 278 280 281 281 282 283 286 290 295 299 302 305 310 313 312 311 311 311 312 314 315 317 318 320 321 321 321 321 320 320 319 317 315 314 312 311 311 311 312 313 311
299 300 296 296 296 296 299 304 300 288 285 289 298 307 307 307 306 300 298 295 289 287 290 286 275 273 278 285 295 296 289 287 283 282 282 279 280 278 274 274 275 276 276 276 278 278 279 280 281 283 285 289 293 296 299 302 306 310 312 310 310 311 312 314 315 317 319 320 321 321 321 321 320 320 319 318 316 314 312 311 312 312 313 314 315 313
297 294 291 291 289 292 299 299 290 283 284 287 297 304 305 307 303 296 296 291 289 289 288 284 275 265 271 282 295 293 285 287 289 289 289 287 284 279 275 276 276 276 275 276 277 278 279 281 282 284 287 290 293 296 300 302 307 311 310 309 310 311 312 314 316 318 320 321 321 321 321 320 320 319 318 316 315 313 311 311 313 314 315 316 316 313
293 288 288 286 285 291 295 290 284 283 283 286 296 301 302 304 298 295 293 286 285 276 276 284 277 249 270 282 285 284 285 293 298 296 294 291 285 278 276 277 277 276 275 276 277 278 280 280 282 284 286 289 292 296 300 304 309 310 308 308 310 312 313 315 317 319 321 321 321 321 321 321 320 319 318 316 315 314 313 314 315 317 317 318 316 313
288 285 284 283 286 291 288 282 279 277 277 284 291 296 299 301 295 292 285 280 281 257 268 284 275 248 269 287 282 286 298 302 299 294 293 290 283 278 278 278 277 276 275 275 276 278 279 279 281 283 285 288 292 297 301 306 309 307 306 307 310 313 315 317 319 320 321 322 322 322 322 321 321 320 318 317 316 315 316 317 319 320 319 319 317 312
286 284 284 285 286 286 279 272 270 268 271 279 287 295 301 302 296 286 272 264 241 259 278 291 278 240 229 273 286 295 303 302 296 293 293 289 284 280 279 277 275 274 273 274 275 276 277 278 280 282 284 288 293 298 302 306 306 304 305 308 311 314 316 318 320 321 321 322 322 322 322 322 321 320 318 317 317 317 319 320 322 322 321 320 317 312
286 286 286 286 283 276 266 262 262 261 266 273 280 289 295 308 313 278 238 242 222 256 281 285 273 239 242 269 285 294 300 300 295 294 292 287 283 279 278 276 274 272 272 273 274 275 276 277 279 281 283 288 294 299 302 304 303 304 307 310 312 315 317 318 319 320 321 322 323 323 323 322 321 320 318 317 318 319 321 323 324 324 322 321 319 313
286 287 284 281 278 269 255 253 258 265 269 271 273 276 270 279 347 286 244 278 263 266 278 272 264 255 261 276 288 295 301 299 293 293 290 284 280 277 277 274 272 271 272 274 275 275 276 277 279 280 283 290 295 299 302 303 304 306 309 310 313 315 317 318 319 320 321 322 323 323 323 322 321 319 318 318 319 320 322 324 325 324 323 322 319 313
273 278 280 276 271 263 255 252 260 273 274 269 268 263 251 239 240 256 249 263 288 295 288 267 246 253 266 283 293 297 299 294 290 291 286 281 277 274 274 272 272 273 273 275 275 274 275 277 278 280 285 292 295 298 302 303 305 307 309 311 314 316 317 318 319 320 322 322 323 323 323 322 320 319 318 318 319 321 323 324 325 324 323 321 319 314
262 266 275 270 261 261 262 259 259 266 266 262 254 244 246 250 245 249 259 265 284 305 286 247 244 264 275 283 288 293 295 291 291 289 284 280 277 274 275 274 274 275 274 275 274 273 274 275 277 281 287 291 294 300 303 304 306 308 310 312 315 317 318 319 320 321 322 322 323 323 322 321 320 319 318 318 319 322 324 325 324 324 323 320 317 313
268 274 277 267 265 268 265 262 259 257 255 249 244 247 258 263 255 253 265 275 277 291 277 255 261 275 282 286 287 291 292 291 293 291 285 281 278 277 276 275 275 275 275 274 272 272 273 274 277 282 287 290 296 302 304 304 308 310 312 314 316 317 318 319 320 321 322 322 323 322 321 321 320 319 319 319 320 322 323 325 324 324 324 320 315 311
268 277 279 272 270 270 262 258 255 250 248 248 252 263 267 262 256 250 255 296 262 252 276 261 267 279 280 283 289 291 291 293 296 291 285 280 279 280 279 277 276 274 273 272 271 270 271 274 278 282 286 294 301 305 304 306 309 311 313 315 316 317 318 319 321 321 323 323 323 322 321 320 320 319 319 319 320 322 323 325 325 325 324 321 314 309
266 277 282 275 265 265 257 248 247 245 244 250 257 260 255 252 254 237 218 269 253 226 278 268 278 281 268 268 287 292 293 298 298 289 283 283 285 285 282 278 275 274 272 271 270 270 271 274 276 281 289 299 305 306 305 306 309 311 314 316 316 317 318 319 321 322 323 323 322 322 321 321 320 319 319 320 320 321 323 325 325 325 324 321 313 306
262 268 278 273 260 256 243 236 243 248 248 251 252 250 249 252 255 247 232 226 206 231 275 280 295 283 273 279 291 294 296 299 298 291 289 291 291 288 284 279 276 274 272 271 270 270 271 272 276 285 296 304 307 306 305 306 309 312 315 316 316 317 318 320 322 322 323 323 322 322 321 320 320 320 320 320 320 322 324 325 325 325 325 322 314 305
252 251 262 266 255 245 246 254 263 267 262 256 250 246 248 249 250 254 250 235 227 241 273 287 282 272 277 289 292 290 294 296 296 295 294 294 292 288 283 279 275 273 271 270 270 269 270 274 282 292 301 306 307 305 304 307 310 313 315 315 316 317 319 321 322 323 323 323 323 322 322 321 321 321 320 320 322 323 325 324 324 326 325 321 313 305
251 251 257 258 254 256 268 275 276 273 271 267 262 258 259 257 248 251 261 240 229 229 234 232 270 271 277 286 287 286 292 294 294 294 293 292 290 287 284 279 274 272 271 270 270 269 273 281 290 298 303 307 306 303 304 308 310 313 314 315 316 317 320 322 323 324 324 324 324 323 322 322 321 321 321 322 323 324 325 324 324 326 326 322 313 306
260 256 256 257 260 267 276 276 270 271 272 268 264 261 260 257 245 238 244 242 231 231 236 236 257 273 279 283 283 286 290 291 291 291 291 291 289 287 283 278 274 272 271 271 271 274 282 289 295 300 305 306 304 302 305 308 311 313 314 315 316 319 321 323 324 325 325 325 324 323 323 322 321 322 323 324 324 325 325 325 325 326 327 322 313 307
253 249 251 258 265 268 269 270 268 270 269 262 262 261 257 256 253 246 243 246 248 237 231 226 249 271 279 281 281 286 288 288 289 290 292 291 289 286 281 276 274 273 274 275 277 282 289 293 296 302 305 304 302 303 306 308 311 313 314 316 318 320 322 324 325 326 326 325 325 324 323 322 323 324 325 325 325 325 325 325 326 327 327 322 313 308
251 246 245 253 273 275 269 267 261 259 261 262 266 265 262 261 255 246 241 245 254 249 235 217 250 267 275 278 280 284 286 286 288 289 290 290 288 285 280 276 275 276 278 280 282 288 291 293 298 303 304 301 300 303 306 308 311 312 314 317 319 321 324 325 327 327 327 326 325 324 324 324 325 326 326 326 325 326 326 326 326 328 327 322 314 309
257 254 247 238 240 260 263 264 262 265 271 270 271 272 270 263 249 241 242 241 245 252 244 235 252 269 274 275 278 282 283 284 287 287 288 289 287 283 280 278 278 280 283 283 286 289 291 294 300 302 300 299 300 303 306 309 311 313 315 319 321 323 325 326 328 328 327 327 326 326 326 326 327 326 325 325 326 326 326 325 325 328 328 323 315 311
254 254 252 245 241 249 261 270 275 278 279 276 277 279 277 271 256 242 240 240 244 249 250 252 257 267 274 274 275 280 282 284 286 287 288 288 286 284 281 279 280 283 284 284 286 288 291 296 300 299 296 297 300 303 306 309 311 313 316 320 323 325 327 328 329 329 329 328 328 328 328 327 326 327 326 326 326 327 327 326 327 329 329 323 316 312
248 251 255 252 251 259 267 271 272 272 274 275 277 277 274 273 264 244 240 249 252 240 251 265 266 265 272 277 277 280 283 284 285 287 288 288 287 284 281 280 281 283 283 284 285 288 293 297 297 294 294 297 300 303 307 309 311 314 318 322 325 327 329 330 330 331 330 330 330 329 328 327 327 327 326 326 327 329 328 328 328 328 328 324 316 313
247 252 260 258 258 266 270 270 268 267 269 272 275 274 270 267 264 255 253 259 256 240 252 271 274 269 273 279 277 278 281 281 283 284 284 284 283 280 279 280 282 283 281 282 285 289 293 293 291 291 294 297 301 303 306 309 312 317 321 324 327 329 330 331 331 332 332 331 330 329 328 328 328 327 327 327 329 330 329 328 328 328 328 325 318 313
246 253 263 260 259 267 270 269 267 266 267 269 274 276 270 264 264 262 263 265 260 252 258 268 272 273 279 282 278 277 278 277 278 279 278 278 278 277 279 281 281 280 280 282 286 288 289 289 289 291 294 297 301 303 306 310 314 319 323 326 328 330 331 332 333 333 333 332 331 330 329 328 328 328 328 328 330 331 330 329 329 328 327 324 319 315
245 252 261 258 257 266 272 271 269 267 267 270 276 277 271 265 264 261 262 265 261 256 263 266 264 270 284 294 287 282 280 276 276 277 277 276 276 277 279 279 278 279 279 282 284 285 286 288 289 291 294 297 300 303 307 312 317 321 325 328 330 331 332 333 334 334 334 333 331 330 329 328 329 329 329 329 331 331 330 329 329 328 327 324 321 318
247 250 256 255 253 264 272 273 269 269 271 271 274 277 272 265 265 264 264 267 262 258 263 262 259 270 292 305 296 289 285 281 279 280 279 277 277 278 279 278 278 278 279 280 282 283 286 287 288 290 294 297 301 305 310 315 320 323 326 329 331 332 333 334 335 336 335 333 331 330 329 329 330 330 330 330 331 331 331 330 329 329 327 324 323 322
253 252 254 251 248 260 269 270 270 276 279 271 273 278 278 272 272 271 269 272 271 263 258 259 267 283 296 297 290 289 287 284 284 283 281 280 279 278 277 277 276 276 278 280 282 285 286 286 287 290 294 298 302 307 313 317 322 326 328 330 331 332 334 336 337 337 336 334 332 330 329 330 330 331 330 330 332 332 331 330 330 329 327 325 325 324
255 253 253 249 246 256 263 266 271 273 260 269 275 280 283 281 280 278 276 281 284 273 264 270 283 291 291 288 288 289 287 286 285 283 281 279 276 275 274 275 274 276 278 280 282 285 285 284 287 291 295 300 304 309 316 320 324 327 329 329 331 333 335 337 338 338 336 334 332 330 330 331 331 331 331 331 332 333 331 330 331 330 328 326 325 325
255 253 251 247 242 249 256 259 262 239 254 269 278 281 282 283 282 281 283 286 288 283 276 278 285 291 291 291 291 287 282 281 279 277 277 276 275 274 273 273 275 277 278 280 282 283 283 284 288 292 296 301 306 312 318 322 324 327 328 329 332 334 337 338 338 338 337 335 333 332 332 332 332 332 331 331 333 333 332 331 332 331 329 327 325 324
254 251 248 244 239 242 245 233 228 256 266 272 275 274 276 278 277 278 282 287 290 287 282 281 287 294 296 293 288 279 274 274 272 271 273 273 272 273 272 273 276 276 277 280 281 281 282 285 289 293 296 302 308 314 319 322 325 327 328 330 333 335 337 338 338 339 338 336 335 334 334 334 333 333 332 332 334 334 333 332 332 332 329 328 327 326
253 250 248 243 237 239 239 236 246 262 273 275 274 274 273 274 274 275 278 285 291 290 287 288 292 295 296 291 283 274 269 268 266 267 269 268 268 269 270 272 273 274 276 278 278 279 282 285 289 292 298 304 310 315 320 323 325 326 328 330 333 335 336 337 339 339 339 337 337 336 336 335 334 334 333 333 334 335 334 333 333 333 331 330 330 329
251 250 248 241 237 240 241 245 254 258 267 271 273 276 277 277 279 275 273 283 291 294 293 293 295 296 294 285 275 270 264 261 261 266 268 266 265 267 268 269 270 272 274 274 275 278 281 285 289 293 300 306 311 316 321 323 325 327 329 331 333 335 336 337 338 340 340 339 338 337 337 337 336 335 334 333 334 336 335 334 334 334 333 332 331 329
247 248 245 239 238 238 233 235 243 237 254 265 269 273 276 275 278 280 277 285 294 302 302 298 300 301 295 286 276 267 256 255 264 277 275 266 265 267 266 267 267 268 270 271 273 277 280 284 289 295 301 306 311 317 321 323 325 327 329 331 333 335 336 337 338 340 341 340 338 338 338 338 337 336 335 334 335 337 337 336 336 335 333 332 331 329
236 238 235 230 234 235 231 234 241 244 255 263 266 268 269 270 275 278 274 286 295 304 303 298 300 300 296 291 280 268 262 268 281 286 270 261 261 260 259 261 262 263 266 269 273 276 280 285 290 296 302 307 313 318 322 324 326 328 330 332 334 335 336 338 339 340 341 340 339 338 338 338 338 337 336 335 336 338 339 338 336 335 333 332 330 328
229 230 227 227 233 235 232 236 245 250 257 261 261 264 266 265 263 258 269 289 298 299 294 293 294 294 293 291 283 280 281 283 279 262 247 247 248 248 251 254 257 260 264 268 272 276 279 285 291 296 302 308 314 320 323 325 327 329 331 333 334 335 337 338 339 339 340 340 339 338 337 338 338 338 337 336 336 337 339 339 337 336 334 332 330 327
227 223 223 227 231 232 234 239 245 255 263 265 261 261 262 254 251 270 287 296 297 289 286 289 290 292 293 290 286 286 285 279 270 256 243 239 241 245 248 250 254 259 263 268 272 276 279 286 292 297 303 310 316 321 324 327 328 330 331 332 333 335 337 338 339 339 339 339 339 338 337 337 338 338 338 337 336 337 339 340 339 338 335 333 330 326
242 231 224 229 231 228 228 230 233 256 271 276 266 256 257 258 271 289 296 294 290 288 287 288 290 293 292 287 285 286 282 276 267 254 242 236 239 243 247 251 255 259 264 268 271 275 281 287 293 299 306 312 318 322 325 327 329 330 331 332 333 335 336 338 338 338 338 338 338 338 337 336 337 338 338 338 337 337 339 341 341 340 337 334 330 326
247 241 234 236 235 220 207 222 251 269 279 285 280 272 274 281 287 291 290 287 288 289 288 288 291 292 289 286 285 283 280 274 263 252 244 239 240 243 246 251 256 259 264 268 270 274 282 288 293 300 308 313 319 323 326 328 329 330 330 331 332 334 336 337 337 337 337 337 337 337 336 336 336 337 338 339 338 337 339 341 342 341 339 336 333 328
253 255 251 246 244 242 244 256 270 277 277 279 282 285 288 289 288 286 286 286 286 286 286 288 289 288 285 283 281 280 278 270 260 251 244 240 241 243 246 251 255 259 263 265 268 275 283 289 295 302 308 314 320 323 326 328 329 329 330 331 332 334 335 336 337 336 336 336 336 336 336 335 335 336 338 340 339 338 340 341 343 344 342 339 336 330
261 262 257 252 252 256 263 268 270 271 273 277 284 288 289 288 285 283 283 285 284 285 286 286 285 284 282 279 279 278 272 264 255 246 240 238 239 242 246 251 255 259 262 264 269 277 284 290 296 303 308 315 321 324 327 328 328 329 329 330 333 334 335 336 336 336 335 335 335 336 335 334 334 335 338 340 340 340 341 343 345 345 344 341 339 334
260 257 252 253 253 252 261 272 273 272 276 281 285 286 286 285 282 279 280 283 285 285 284 283 281 280 277 276 275 271 265 259 250 240 236 238 239 243 248 251 254 259 262 264 269 277 285 290 296 303 309 316 322 324 327 328 327 328 329 331 333 335 335 336 336 335 335 335 335 335 334 333 333 334 337 341 342 342 342 345 347 347 345 344 343 339
262 259 252 253 254 254 266 278 278 273 276 280 280 282 284 284 283 282 282 283 284 283 281 280 278 275 273 272 270 265 260 253 244 237 236 236 239 243 246 250 256 260 260 263 270 278 285 291 298 305 311 317 322 325 326 327 327 328 330 331 334 335 336 336 336 335 334 334 334 334 333 333 333 334 337 342 345 346 344 345 350 352 349 347 346 344
263 260 258 258 258 261 270 276 272 268 274 280 282 284 287 289 288 286 282 280 279 278 277 276 274 272 271 267 263 259 254 246 239 235 234 234 238 242 246 251 256 256 256 261 270 277 285 293 300 306 312 319 323 325 326 327 327 329 330 332 334 335 336 336 335 334 334 334 333 333 332 333 334 335 338 341 346 351 350 348 351 354 353 350 349 346
257 257 259 257 253 258 269 277 276 273 277 285 287 286 286 287 286 283 278 275 275 274 273 272 270 267 264 261 258 254 248 240 233 229 231 234 238 242 247 252 252 252 255 261 269 278 287 295 301 308 315 320 323 325 326 327 328 329 331 333 334 335 336 336 335 335 334 333 333 332 333 334 335 336 339 341 344 351 356 355 355 355 354 352 350 348
261 261 262 259 259 266 276 285 285 279 282 289 290 284 281 280 279 277 274 272 272 272 270 267 264 261 258 257 254 249 242 234 227 227 231 234 237 242 247 250 250 250 254 260 269 279 288 295 302 310 316 320 323 325 326 328 329 331 332 333 335 336 336 336 335 335 334 333 333 333 334 335 336 337 340 343 344 349 355 359 360 358 356 354 351 350
Height
3154 3153 3152 3151 3150 3149 3148 3147 3146 3144 3142 3141 3139 3138 3136 3134 3132 3131 3131 3130 3128 3125 3121 3121 3118 3117 3117 3116 3114 3113 3110 3107 3106 3106 3105 3103 3102 3101 3100 3099 3098 3097 3096 3095 3093 3090 3089 3087 3086 3084 3083 3082 3080 3079 3077 3075 3072 3069 3067 3064 3060 3056 3052 3048 3045 3042 3039 3035 3030 3027 3024 3021 3019 3015 3012 3008 3003 2999 2995 2992 2989 2986 2982 2979 2976 2972
3152 3151 3150 3149 3148 3147 3146 3145 3144 3142 3140 3138 3137 3135 3133 3131 3129 3129 3128 3126 3126 3122 3118 3117 3115 3112 3114 3113 3111 3109 3105 3103 3102 3102 3101 3099 3098 3097 3096 3094 3094 3094 3093 3091 3089 3087 3085 3083 3082 3081 3079 3078 3076 3075 3073 3070 3067 3065 3062 3058 3054 3050 3047 3044 3041 3037 3034 3030 3025 3021 3018 3014 3011 3008 3004 3000 2996 2993 2989 2985 2981 2978 2975 2972 2969 2964
3150 3149 3148 3147 3146 3145 3144 3142 3142 3140 3138 3136 3135 3133 3131 3129 3126 3125 3125 3123 3123 3119 3114 3113 3109 3107 3110 3110 3108 3104 3100 3099 3099 3097 3096 3094 3093 3092 3091 3090 3090 3090 3089 3088 3086 3083 3081 3080 3079 3077 3075 3073 3072 3070 3068 3065 3062 3059 3056 3053 3049 3046 3043 3040 3036 3032 3029 3026 3022 3017 3013 3009 3005 3003 2999 2995 2990 2986 2983 2980 2975 2970 2965 2962 2960 2956
3148 3147 3146 3144 3143 3142 3141 3140 3139 3138 3137 3135 3133 3131 3128 3127 3125 3122 3121 3120 3119 3116 3112 3109 3103 3101 3105 3104 3103 3101 3097 3096 3095 3093 3091 3090 3089 3088 3087 3086 3085 3085 3085 3084 3082 3080 3078 3076 3074 3072 3070 3069 3067 3065 3064 3061 3058 3054 3051 3048 3045 3042 3038 3034 3031 3027 3024 3021 3017 3013 3009 3004 3000 2997 2994 2991 2987 2982 2977 2973 2969 2964 2957 2951 2948 2946
3145 3145 3143 3142 3141 3140 3138 3137 3136 3135 3134 3132 3131 3129 3126 3126 3124 3121 3118 3117 3115 3114 3112 3107 3096 3089 3096 3097 3096 3098 3095 3093 3092 3090 3088 3086 3085 3084 3083 3082 3081 3080 3081 3080 3077 3076 3074 3072 3070 3068 3066 3065 3063 3061 3059 3056 3052 3049 3046 3043 3041 3037 3033 3029 3026 3022 3019 3015 3011 3007 3003 2999 2995 2991 2986 2982 2978 2975 2970 2965 2961 2957 2952 2945 2939 2936
3142 3142 3140 3139 3138 3137 3136 3135 3134 3132 3130 3129 3128 3127 3125 3123 3122 3119 3118 3114 3111 3110 3110 3109 3096 3083 3085 3091 3091 3092 3092 3090 3088 3085 3084 3083 3081 3080 3079 3077 3077 3077 3077 3075 3072 3071 3069 3068 3066 3064 3062 3061 3059 3057 3054 3050 3047 3044 3041 3039 3036 3032 3028 3024 3021 3017 3013 3008 3003 2999 2994 2990 2986 2982 2978 2972 2966 2963 2960 2956 2952 2948 2944 2939 2933 2928
3139 3139 3137 3136 3135 3134 3133 3132 3132 3130 3128 3126 3125 3125 3124 3121 3119 3117 3116 3113 3110 3107 3106 3108 3103 3086 3078 3083 3086 3086 3085 3084 3082 3079 3078 3078 3076 3075 3074 3072 3072 3072 3071 3070 3068 3067 3065 3063 3061 3059 3057 3056 3054 3051 3049 3046 3043 3040 3037 3035 3032 3028 3023 3019 3015 3011 3007 3002 2998 2992 2987 2983 2977 2973 2970 2966 2961 2955 2951 2947 2944 2939 2935 2930 2924 2919
3136 3136 3134 3133 3132 3130 3130 3130 3129 3128 3126 3123 3122 3122 3121 3119 3118 3114 3113 3112 3107 3105 3103 3102 3104 3092 3075 3074 3079 3079 3079 3077 3075 3074 3073 3072 3071 3069 3068 3067 3068 3068 3066 3065 3063 3062 3060 3058 3056 3054 3052 3051 3049 3046 3044 3041 3039 3036 3033 3030 3027 3023 3018 3014 3009 3005 3000 2996 2992 2987 2982 2978 2972 2967 2963 2959 2955 2950 2945 2940 2936 2931 2926 2921 2915 2911
3133 3132 3131 3130 3128 3127 3127 3127 3126 3125 3123 3121 3119 3119 3117 3116 3115 3112 3111 3109 3105 3103 3098 3093 3099 3094 3072 3068 3075 3074 3073 3071 3068 3068 3068 3067 3066 3064 3063 3063 3063 3063 3061 3060 3059 3057 3055 3053 3051 3049 3048 3046 3044 3041 3039 3036 3034 3031 3028 3025 3022 3018 3013 3008 3004 2999 2995 2990 2986 2982 2977 2972 2968 2962 2957 2952 2948 2944 2939 2934 2929 2924 2918 2913 2907 2902
3130 3129 3128 3126 3125 3124 3124 3124 3123 3122 3121 3119 3118 3116 3115 3113 3110 3109 3108 3104 3104 3102 3092 3087 3094 3090 3069 3062 3070 3070 3067 3066 3064 3064 3063 3062 3062 3059 3059 3060 3059 3058 3056 3055 3054 3052 3051 3049 3046 3045 3044 3042 3040 3037 3034 3032 3029 3026 3023 3020 3017 3013 3008 3003 2998 2994 2990 2985 2980 2976 2971 2966 2961 2956 2951 2946 2942 2937 2931 2926 2922 2916 2910 2904 2899 2894
3125 3125 3124 3123 3121 3121 3121 3120 3119 3120 3118 3117 3116 3113 3112 3110 3106 3106 3103 3102 3103 3095 3085 3083 3088 3087 3072 3058 3061 3064 3062 3061 3060 3060 3060 3058 3057 3055 3055 3056 3054 3053 3052 3051 3050 3048 3046 3044 3043 3041 3040 3038 3035 3033 3030 3027 3025 3022 3019 3015 3011 3007 3002 2997 2993 2989 2984 2980 2975 2970 2965 2959 2954 2949 2944 2939 2935 2930 2924 2919 2914 2908 2902 2896 2891 2886
3120 3120 3119 3118 3118 3118 3117 3117 3116 3116 3116 3115 3114 3111 3109 3107 3104 3102 3100 3101 3100 3087 3080 3081 3083 3085 3074 3055 3053 3058 3056 3056 3056 3055 3055 3054 3052 3051 3051 3051 3050 3048 3047 3046 3045 3044 3042 3040 3039 3037 3035 3033 3031 3028 3026 3024 3021 3019 3015 3010 3006 3002 2997 2992 2988 2983 2979 2975 2970 2965 2959 2954 2948 2943 2937 2932 2928 2923 2917 2911 2906 2900 2894 2888 2883 2878
3114 3115 3115 3114 3113 3114 3113 3113 3113 3113 3113 3112 3111 3111 3109 3106 3103 3101 3098 3097 3092 3083 3078 3079 3080 3077 3063 3049 3051 3054 3051 3051 3050 3049 3050 3048 3047 3047 3048 3047 3045 3044 3042 3041 3041 3039 3038 3036 3034 3033 3031 3029 3027 3024 3023 3020 3017 3014 3009 3005 3001 2996 2992 2987 2983 2978 2974 2969 2964 2959 2954 2948 2943 2937 2932 2927 2922 2917 2910 2904 2898 2892 2887 2880 2875 2871
3109 3109 3110 3109 3108 3109 3109 3109 3110 3109 3110 3109 3108 3109 3108 3107 3106 3100 3095 3091 3085 3079 3076 3078 3078 3067 3051 3044 3047 3048 3047 3047 3046 3045 3045 3043 3043 3043 3043 3042 3040 3038 3038 3037 3037 3035 3033 3032 3030 3028 3027 3025 3023 3020 3018 3015 3012 3008 3004 2999 2995 2992 2987 2983 2978 2974 2969 2964 2959 2954 2948 2943 2938 2932 2927 2921 2916 2910 2905 2899 2892 2886 2879 2873 2868 2864
3106 3104 3104 3105 3104 3105 3105 3106 3106 3106 3106 3105 3105 3106 3104 3104 3104 3097 3091 3087 3080 3076 3074 3076 3072 3057 3043 3039 3040 3041 3042 3042 3041 3040 3039 3037 3038 3039 3038 3037 3034 3033 3033 3033 3032 3031 3029 3028 3026 3024 3023 3020 3018 3016 3014 3010 3006 3003 2999 2994 2990 2987 2982 2978 2973 2968 2963 2958 2954 2948 2943 2938 2932 2926 2920 2915 2910 2904 2899 2893 2887 2880 2874 2867 2861 2857
3102 3098 3098 3100 3100 3101 3102 3102 3103 3103 3102 3101 3101 3102 3099 3098 3099 3094 3088 3084 3082 3078 3070 3066 3058 3044 3038 3035 3034 3038 3036 3036 3037 3035 3033 3033 3033 3034 3033 3031 3030 3029 3029 3029 3028 3027 3025 3024 3022 3020 3018 3016 3015 3012 3008 3005 3002 2998 2993 2989 2985 2981 2977 2972 2968 2963 2958 2954 2949 2944 2938 2933 2927 2921 2915 2909 2904 2898 2893 2887 2881 2874 2868 2861 2856 2851
3098 3093 3093 3096 3096 3097 3098 3098 3099 3099 3098 3097 3096 3096 3094 3094 3094 3091 3086 3082 3084 3080 3064 3054 3045 3036 3034 3029 3027 3032 3030 3030 3033 3029 3027 3029 3028 3029 3027 3026 3026 3025 3025 3025 3024 3023 3021 3020 3018 3016 3014 3013 3010 3007 3003 3000 2996 2992 2988 2983 2979 2976 2972 2967 2962 2958 2953 2948 2944 2939 2934 2928 2921 2915 2909 2903 2897 2892 2887 2882 2875 2868 2862 2856 2850 2845
3097 3091 3088 3092 3092 3093 3094 3094 3094 3094 3094 3093 3092 3091 3091 3091 3090 3090 3087 3082 3083 3079 3060 3048 3042 3032 3030 3026 3020 3023 3025 3025 3027 3024 3022 3024 3024 3024 3023 3022 3022 3022 3022 3021 3019 3019 3017 3016 3014 3012 3011 3008 3005 3002 2997 2994 2991 2987 2983 2978 2974 2970 2966 2962 2957 2952 2947 2942 2937 2933 2928 2923 2916 2910 2903 2897 2891 2885 2880 2875 2869 2863 2856 2849 2844 2839
3096 3090 3084 3086 3088 3088 3089 3090 3090 3089 3089 3089 3087 3088 3088 3088 3086 3085 3085 3080 3079 3076 3058 3045 3040 3026 3020 3023 3018 3017 3020 3021 3022 3019 3018 3020 3020 3019 3019 3018 3019 3018 3018 3017 3016 3015 3013 3012 3010 3008 3007 3004 3000 2996 2992 2989 2986 2982 2978 2973 2969 2965 2961 2957 2952 2948 2944 2938 2932 2927 2921 2916 2911 2904 2898 2891 2886 2880 2875 2869 2863 2857 2850 2843 2838 2833
3095 3091 3082 3079 3082 3084 3083 3084 3083 3082 3085 3085 3083 3084 3083 3083 3082 3079 3079 3075 3072 3072 3057 3047 3040 3018 3007 3016 3016 3014 3017 3018 3017 3015 3016 3017 3016 3015 3015 3015 3015 3015 3014 3013 3012 3011 3009 3008 3007 3005 3002 2998 2994 2991 2987 2984 2981 2977 2973 2968 2964 2960 2956 2952 2947 2943 2939 2933 2928 2922 2915 2910 2905 2898 2892 2886 2880 2874 2869 2863 2857 2851 2844 2837 2831 2827
3091 3089 3081 3076 3077 3078 3075 3076 3076 3078 3081 3080 3078 3079 3077 3078 3078 3074 3071 3067 3068 3069 3059 3052 3041 3011 3001 3012 3012 3011 3015 3014 3013 3012 3012 3013 3012 3011 3012 3011 3011 3011 3010 3009 3008 3007 3006 3005 3003 3000 2996 2992 2988 2986 2982 2979 2975 2971 2968 2963 2959 2955 2951 2947 2943 2937 2933 2927 2922 2916 2909 2904 2898 2892 2886 2880 2874 2868 2862 2857 2851 2845 2838 2830 2825 2820
3086 3083 3077 3073 3071 3069 3067 3069 3071 3073 3075 3073 3072 3071 3071 3073 3074 3072 3066 3058 3062 3061 3051 3051 3036 3001 2996 3010 3007 3007 3012 3009 3010 3009 3008 3009 3007 3007 3007 3007 3007 3007 3006 3005 3004 3003 3002 3000 2998 2994 2990 2987 2983 2981 2978 2974 2971 2967 2963 2959 2954 2950 2946 2941 2937 2932 2927 2922 2916 2910 2903 2897 2892 2886 2880 2874 2868 2862 2856 2849 2843 2838 2831 2824 2819 2814
3082 3079 3073 3068 3065 3064 3064 3065 3067 3068 3067 3067 3065 3064 3066 3067 3067 3067 3060 3051 3054 3050 3042 3050 3032 2992 2991 3006 3002 3004 3007 3004 3005 3005 3004 3004 3003 3003 3003 3002 3003 3002 3001 3001 2999 2999 2997 2994 2992 2989 2985 2982 2979 2976 2973 2969 2966 2962 2959 2955 2949 2945 2941 2937 2932 2927 2922 2916 2910 2904 2898 2892 2886 2880 2874 2868 2862 2856 2850 2843 2836 2831 2825 2818 2812 2809
3076 3073 3068 3063 3061 3062 3060 3060 3061 3062 3061 3059 3056 3056 3058 3057 3055 3056 3051 3048 3048 3039 3037 3047 3026 2990 2990 2999 2997 3000 3001 2999 3000 3000 2999 3000 2998 2998 2998 2997 2998 2997 2996 2996 2994 2993 2991 2988 2986 2983 2980 2977 2974 2972 2969 2965 2962 2958 2954 2950 2945 2940 2936 2931 2927 2922 2916 2911 2905 2899 2892 2886 2880 2874 2868 2862 2856 2850 2844 2837 2830 2824 2817 2811 2806 2803
3070 3067 3065 3063 3061 3059 3055 3054 3055 3054 3054 3051 3048 3049 3049 3048 3050 3050 3048 3048 3041 3028 3033 3038 3013 2989 2990 2994 2993 2996 2996 2994 2996 2995 2994 2995 2993 2993 2992 2992 2992 2992 2991 2990 2988 2987 2985 2983 2981 2978 2975 2973 2970 2968 2965 2962 2958 2954 2950 2945 2940 2936 2931 2926 2921 2917 2911 2905 2899 2893 2887 2880 2874 2868 2862 2856 2850 2844 2837 2831 2825 2818 2811 2804 2800 2796
3063 3061 3060 3059 3059 3055 3048 3045 3047 3047 3047 3044 3041 3042 3041 3042 3045 3043 3044 3044 3030 3022 3030 3023 2999 2988 2989 2990 2990 2991 2990 2990 2991 2991 2990 2989 2988 2988 2987 2987 2987 2986 2985 2984 2982 2981 2979 2977 2975 2973 2970 2968 2966 2964 2961 2958 2954 2949 2945 2941 2936 2931 2926 2921 2917 2912 2906 2900 2894 2888 2881 2874 2868 2863 2857 2851 2845 2838 2832 2825 2819 2813 2806 2799 2793 2790
3057 3053 3050 3049 3050 3046 3039 3038 3042 3043 3042 3038 3034 3035 3034 3034 3036 3038 3038 3029 3019 3022 3021 3002 2992 2989 2982 2984 2988 2986 2985 2986 2985 2985 2985 2984 2984 2983 2982 2983 2981 2980 2979 2978 2977 2976 2974 2972 2970 2968 2966 2964 2962 2959 2957 2953 2949 2945 2941 2936 2932 2926 2921 2917 2912 2907 2901 2895 2888 2882 2875 2869 2864 2858 2852 2845 2839 2833 2826 2818 2811 2805 2800 2793 2787 2783
3050 3044 3041 3042 3040 3036 3033 3035 3039 3039 3036 3033 3030 3027 3026 3027 3029 3030 3023 3013 3015 3023 3006 2985 2990 2989 2974 2977 2985 2982 2982 2982 2979 2980 2980 2979 2979 2978 2978 2977 2975 2975 2973 2972 2972 2970 2968 2967 2965 2963 2962 2959 2957 2955 2952 2950 2945 2941 2937 2932 2927 2922 2916 2912 2907 2902 2896 2889 2883 2877 2871 2865 2859 2853 2847 2840 2834 2827 2820 2813 2807 2799 2793 2788 2782 2777
3043 3036 3033 3036 3034 3029 3029 3030 3034 3033 3030 3027 3022 3017 3019 3022 3020 3015 3009 3005 3012 3012 2991 2978 2986 2982 2968 2973 2980 2978 2979 2978 2975 2976 2976 2974 2974 2973 2972 2971 2969 2969 2968 2967 2966 2964 2963 2962 2960 2959 2957 2954 2953 2951 2948 2946 2941 2937 2932 2927 2922 2918 2912 2907 2902 2896 2891 2885 2878 2872 2866 2860 2854 2848 2842 2835 2828 2822 2815 2807 2801 2794 2788 2782 2777 2772
3037 3029 3029 3031 3027 3023 3023 3024 3027 3027 3024 3021 3011 3004 3010 3014 3009 3005 3002 3000 3002 2997 2984 2979 2981 2971 2962 2968 2973 2974 2975 2973 2972 2972 2970 2969 2968 2967 2967 2966 2964 2964 2963 2962 2961 2959 2959 2958 2955 2954 2952 2950 2949 2946 2943 2940 2936 2932 2927 2923 2918 2913 2908 2903 2897 2891 2886 2880 2873 2867 2861 2855 2850 2843 2837 2830 2823 2817 2810 2803 2796 2789 2783 2777 2771 2767
3030 3025 3025 3026 3022 3018 3016 3018 3021 3019 3018 3015 2999 2990 3001 3006 3001 2998 2994 2990 2991 2986 2977 2977 2976 2963 2956 2962 2969 2969 2969 2967 2966 2966 2964 2963 2963 2962 2962 2961 2960 2959 2958 2957 2957 2955 2955 2953 2951 2949 2948 2946 2944 2942 2939 2935 2931 2927 2923 2918 2914 2909 2904 2898 2893 2887 2881 2875 2869 2863 2857 2851 2845 2839 2832 2825 2819 2813 2806 2799 2791 2783 2777 2771 2767 2762
3024 3020 3019 3021 3019 3012 3010 3013 3013 3012 3014 3007 2985 2976 2989 2995 2988 2985 2984 2980 2979 2974 2971 2975 2971 2956 2952 2960 2964 2963 2962 2961 2960 2960 2959 2959 2959 2958 2957 2956 2956 2955 2954 2954 2953 2952 2950 2948 2947 2945 2943 2942 2940 2937 2934 2930 2926 2923 2918 2914 2909 2905 2900 2894 2888 2882 2876 2870 2864 2858 2852 2846 2840 2834 2828 2821 2815 2808 2801 2794 2787 2779 2771 2765 2761 2757
3017 3014 3014 3017 3014 3007 3008 3008 3005 3010 3011 2992 2969 2967 2977 2979 2976 2975 2974 2970 2968 2967 2968 2967 2958 2948 2952 2958 2957 2955 2955 2954 2954 2954 2954 2954 2954 2953 2952 2952 2951 2951 2951 2950 2948 2947 2946 2944 2943 2941 2939 2938 2935 2932 2929 2925 2922 2918 2913 2909 2905 2901 2896 2890 2883 2878 2872 2866 2861 2854 2848 2842 2836 2830 2824 2817 2811 2804 2797 2790 2783 2775 2766 2760 2755 2751
3010 3009 3009 3011 3008 3004 3004 3003 3003 3009 2997 2969 2957 2964 2969 2968 2968 2968 2965 2961 2959 2960 2960 2955 2947 2946 2951 2953 2950 2949 2949 2948 2948 2948 2947 2948 2948 2948 2948 2947 2947 2947 2946 2945 2944 2942 2941 2940 2939 2937 2935 2933 2930 2928 2925 2921 2917 2914 2910 2906 2902 2897 2891 2885 2880 2874 2868 2863 2857 2850 2844 2838 2832 2826 2819 2813 2807 2800 2793 2785 2778 2770 2762 2755 2750 2746
3003 3004 3004 3004 3003 2999 2999 3002 3002 2993 2972 2955 2957 2962 2961 2960 2961 2960 2957 2953 2952 2953 2952 2948 2944 2943 2945 2946 2946 2945 2943 2943 2943 2941 2940 2941 2941 2941 2942 2942 2942 2942 2941 2940 2939 2938 2937 2936 2935 2933 2931 2929 2926 2923 2921 2917 2914 2911 2907 2903 2898 2892 2886 2881 2876 2871 2865 2859 2853 2847 2840 2834 2828 2822 2815 2808 2802 2795 2788 2780 2773 2765 2757 2751 2745 2740
2995 2998 2997 2996 2997 2994 2994 2995 2987 2969 2956 2954 2957 2956 2955 2956 2955 2954 2951 2945 2944 2947 2945 2941 2939 2938 2940 2942 2941 2940 2939 2938 2937 2935 2935 2936 2935 2935 2936 2936 2936 2937 2936 2935 2935 2934 2933 2932 2931 2929 2927 2925 2922 2919 2917 2914 2910 2907 2903 2899 2893 2888 2882 2877 2872 2867 2861 2855 2849 2843 2836 2830 2824 2818 2811 2804 2797 2791 2783 2776 2768 2761 2753 2747 2741 2736
2989 2990 2990 2989 2988 2985 2984 2980 2971 2963 2957 2949 2945 2948 2951 2950 2950 2952 2948 2939 2938 2942 2940 2937 2935 2934 2935 2936 2934 2934 2934 2933 2930 2929 2930 2931 2929 2929 2931 2931 2931 2931 2931 2931 2931 2930 2929 2928 2927 2926 2923 2920 2918 2916 2913 2910 2906 2903 2899 2894 2889 2884 2879 2874 2869 2864 2858 2852 2845 2839 2833 2826 2820 2814 2807 2800 2793 2787 2779 2771 2764 2756 2747 2741 2736 2732
2982 2982 2983 2982 2978 2977 2977 2972 2968 2967 2956 2939 2935 2941 2943 2943 2945 2948 2944 2934 2931 2935 2935 2932 2931 2930 2930 2931 2929 2929 2929 2927 2924 2924 2926 2925 2924 2925 2926 2926 2926 2926 2926 2927 2927 2926 2926 2924 2923 2921 2919 2917 2914 2912 2909 2906 2903 2899 2895 2890 2886 2881 2876 2871 2866 2860 2854 2848 2842 2836 2829 2823 2816 2810 2803 2796 2789 2783 2775 2767 2759 2751 2744 2737 2732 2728
2975 2974 2976 2976 2972 2971 2970 2965 2961 2957 2944 2933 2935 2938 2938 2939 2940 2943 2941 2930 2924 2928 2929 2926 2926 2926 2926 2926 2924 2924 2923 2920 2918 2921 2922 2921 2921 2921 2921 2921 2921 2922 2922 2922 2923 2922 2921 2920 2918 2916 2914 2913 2910 2908 2906 2902 2899 2895 2891 2886 2882 2877 2872 2867 2862 2857 2851 2845 2839 2832 2826 2820 2814 2807 2800 2793 2785 2778 2771 2762 2754 2747 2741 2735 2729 2725
2967 2966 2968 2967 2962 2961 2960 2956 2953 2946 2935 2930 2933 2935 2935 2935 2936 2942 2939 2925 2919 2924 2924 2920 2921 2921 2920 2920 2920 2919 2918 2916 2916 2919 2918 2917 2917 2917 2916 2916 2917 2917 2918 2918 2919 2918 2917 2916 2914 2912 2911 2909 2906 2904 2902 2898 2895 2891 2887 2882 2878 2873 2869 2864 2858 2853 2847 2841 2835 2829 2823 2817 2811 2805 2798 2789 2782 2776 2768 2760 2752 2745 2739 2733 2728 2723
2958 2957 2958 2955 2951 2953 2953 2950 2946 2938 2928 2926 2930 2931 2931 2933 2935 2936 2928 2917 2917 2921 2918 2916 2917 2915 2915 2916 2914 2913 2914 2913 2913 2914 2913 2912 2912 2912 2912 2912 2913 2913 2914 2914 2914 2914 2913 2911 2910 2908 2907 2905 2902 2900 2897 2894 2891 2887 2882 2878 2874 2869 2865 2860 2855 2850 2844 2838 2832 2827 2821 2815 2808 2802 2795 2787 2779 2773 2767 2760 2752 2744 2736 2730 2725 2721
2948 2948 2949 2947 2945 2947 2946 2946 2944 2933 2919 2920 2926 2927 2928 2929 2927 2922 2915 2912 2915 2914 2912 2912 2912 2910 2911 2910 2909 2909 2910 2909 2908 2908 2908 2908 2907 2907 2908 2908 2909 2910 2910 2910 2910 2909 2908 2907 2905 2904 2902 2901 2898 2896 2893 2890 2887 2883 2879 2875 2871 2866 2862 2857 2852 2846 2841 2835 2830 2824 2818 2812 2806 2800 2793 2785 2777 2770 2764 2758 2750 2743 2735 2729 2724 2719
2938 2940 2939 2936 2937 2939 2941 2944 2941 2926 2911 2913 2920 2920 2920 2918 2914 2910 2910 2910 2909 2907 2906 2907 2906 2906 2906 2904 2904 2905 2904 2904 2904 2904 2903 2904 2903 2904 2904 2904 2905 2906 2906 2906 2906 2905 2904 2902 2901 2900 2898 2896 2894 2892 2889 2886 2883 2879 2875 2871 2867 2863 2858 2853 2848 2843 2838 2832 2827 2821 2815 2809 2803 2797 2791 2783 2775 2767 2761 2755 2748 2741 2734 2727 2722 2717
2930 2928 2925 2923 2923 2927 2929 2927 2919 2909 2905 2909 2910 2908 2908 2907 2905 2906 2906 2903 2902 2901 2901 2900 2900 2901 2900 2899 2900 2900 2899 2900 2900 2899 2899 2900 2899 2900 2901 2901 2902 2902 2902 2902 2902 2900 2900 2898 2897 2896 2894 2892 2890 2888 2885 2882 2879 2876 2872 2868 2864 2860 2855 2850 2845 2840 2835 2829 2824 2818 2812 2807 2801 2795 2789 2782 2773 2764 2758 2753 2747 2740 2733 2726 2720 2715
2915 2913 2913 2912 2912 2912 2911 2906 2901 2900 2902 2902 2899 2899 2900 2900 2900 2901 2899 2897 2897 2896 2894 2895 2895 2895 2894 2895 2895 2895 2895 2895 2895 2895 2896 2895 2895 2897 2897 2897 2898 2898 2898 2898 2897 2896 2896 2894 2893 2892 2890 2888 2887 2884 2881 2878 2875 2872 2869 2865 2861 2856 2851 2847 2842 2837 2832 2826 2820 2815 2809 2804 2798 2792 2787 2780 2772 2762 2755 2749 2743 2737 2731 2724 2719 2714
2907 2908 2908 2907 2906 2904 2900 2895 2894 2895 2894 2893 2893 2895 2895 2894 2894 2894 2892 2891 2891 2890 2889 2890 2889 2888 2889 2889 2889 2890 2890 2890 2890 2890 2891 2891 2892 2893 2893 2893 2894 2894 2894 2894 2893 2892 2892 2890 2889 2888 2886 2885 2883 2880 2877 2874 2871 2868 2865 2861 2857 2853 2848 2844 2839 2833 2828 2823 2817 2811 2806 2801 2796 2791 2785 2778 2771 2762 2753 2746 2740 2734 2728 2723 2718 2712
2902 2904 2902 2900 2901 2898 2890 2884 2886 2887 2887 2888 2889 2889 2889 2888 2888 2888 2887 2887 2887 2885 2884 2884 2883 2882 2883 2883 2883 2884 2884 2884 2885 2885 2886 2887 2888 2888 2889 2890 2890 2890 2890 2890 2889 2888 2887 2887 2886 2885 2883 2881 2879 2876 2874 2871 2868 2865 2861 2857 2854 2850 2845 2840 2835 2830 2824 2819 2813 2807 2802 2798 2793 2788 2783 2777 2769 2760 2752 2746 2741 2734 2726 2721 2716 2711
2896 2897 2894 2892 2891 2887 2880 2878 2880 2880 2881 2882 2882 2881 2882 2883 2882 2882 2883 2883 2882 2880 2879 2879 2878 2877 2877 2877 2878 2879 2879 2879 2880 2880 2881 2883 2883 2884 2886 2886 2886 2886 2886 2885 2885 2884 2884 2883 2882 2881 2879 2877 2875 2873 2870 2867 2864 2861 2857 2854 2850 2846 2842 2837 2832 2826 2820 2815 2809 2804 2799 2794 2790 2785 2780 2775 2768 2759 2748 2740 2736 2732 2725 2717 2712 2708
2890 2889 2884 2883 2883 2878 2872 2870 2871 2872 2874 2875 2874 2875 2877 2877 2877 2878 2878 2876 2876 2875 2873 2874 2873 2872 2872 2872 2872 2873 2874 2874 2875 2875 2876 2878 2879 2880 2881 2881 2882 2882 2882 2881 2881 2881 2880 2879 2878 2877 2875 2873 2871 2869 2867 2864 2861 2857 2854 2850 2846 2842 2838 2834 2828 2823 2817 2811 2806 2801 2796 2792 2788 2783 2778 2773 2769 2762 2751 2739 2730 2728 2725 2718 2711 2706
2879 2875 2873 2876 2875 2866 2858 2860 2864 2866 2866 2867 2868 2869 2871 2872 2872 2872 2871 2870 2869 2868 2868 2868 2869 2868 2867 2867 2867 2868 2869 2870 2870 2871 2871 2873 2875 2876 2877 2878 2878 2878 2878 2878 2878 2877 2876 2876 2874 2873 2872 2870 2868 2866 2863 2860 2857 2854 2850 2847 2843 2839 2835 2830 2825 2820 2813 2808 2803 2798 2793 2789 2785 2781 2776 2771 2767 2763 2758 2748 2735 2727 2723 2719 2714 2708
2863 2863 2864 2863 2858 2851 2850 2856 2861 2859 2857 2860 2863 2863 2863 2865 2865 2864 2864 2863 2862 2862 2862 2862 2863 2863 2862 2862 2862 2863 2864 2865 2866 2866 2867 2869 2871 2872 2873 2874 2874 2874 2874 2874 2874 2873 2873 2872 2871 2870 2868 2866 2864 2862 2860 2857 2854 2850 2847 2843 2839 2835 2831 2826 2821 2816 2810 2804 2799 2795 2790 2786 2782 2778 2774 2770 2764 2760 2757 2753 2746 2736 2728 2720 2715 2710